COSMOS 1375 DEB, 16204

Orbit data source: Space-Track

COSMOS 1375 DEB, 16204 is space debris in LEO originally from a launch on Sun, 06 Jun 1982 UTC launched from the Plesetsk Missile And Space Complex (PKMTR). Debris objects in space refer to the collection of defunct objects orbiting the Earth. Examples of debris include non-operational satellites, rocket bodies, and fragments generated from explosions, collisions, or faulty payload assembly.

Loading next visibility...
Identifier
16204, 1982-055F
Orbit
LEO
Country
Flag of CISCIS
Related business
Manufacturer
Unknown
Mission
Spacecraft
Bus & Motor
Unknown
Mass
Unknown
Launch date (UTC)
1982-06-06 (44 years ago)
Launch vehicle
Unknown
Launch site
Plesetsk Missile And Space Complex (PKMTR)
Object type
Payload
Rocket body
Debris
Shape & HBR
Unknown shape, 0.3 m
Radar Cross Section
Medium (>0.1 m² and <1 m²)

Expand to show TLE details & history
Last TLE update: 2 days ago

TLE from 2 days ago
0 COSMOS 1375 DEB
1 16204U 82055F   26171.19821641 -.00000061  00000-0  19890-4 0  9991
2 16204  65.8334  99.5262 0015971 130.8813  18.1120 13.80037324 48178
Epoch: 2026-06-20T04:45Z
TLE epoch observation values (Epoch: 2026-06-20T04:45:25.897Z)
Latitude
28.0415°
Longitude
-74.00226°
Altitude
955.143 km
Speed
7.383 km/s
True Right ascension
17h 43m 05s
True Declination
27° 54' 10"
Sunlit
Object was in full shadow at epoch
Visualization orbit readout
Latitude
Unknown
Longitude
Unknown
Altitude
Unknown
Speed
Unknown
Apparent Right ascension
Unknown
Apparent Declination
Unknown
Sunlit
N/A
Visualization observer readout
Local Sidereal Time
00:39:43
Azimuth
Unknown
Elevation
Unknown
Doppler factor
Unknown
Orbital elements
Apogee altitude
973.991 km
Perigee altitude
950.544 km
Semi-major axis
7,340.405 km
Eccentricity
0.0016
Inclination
65.8334°
RAAN
99.5262°
Arg. of periapsis
130.8813°
True anomaly
18.169°
Mean anomaly
18.112°
Eccentric anomaly
18.14049°
Mean motion
3.45114 °/min
Orbital period
104.31 mins
BSTAR
0.00001989
Loading maneuver chart data...
Computing Atmospheric mass density...
Loading historical data...
Loading historical data...
Loading historical data...
Loading historical data...
Loading historical data...
Loading historical data...
Loading historical data...

Documentation

Showing up to 5 results
|